• Em Portugal
  • Lista de países
  • Para 7 dias
  • Temperatura da água
  • Mapas de satélite
  • Mapa do tempo
  • Widgets de tempo
  • user-avatar
    Iniciar Sessão

    Previsão horária em Chişinău

    Hoje, 18 Junho, Segunda-feira

    Tempo Temperatura Precipitação Vento Pressão Humidade
    00:00 +21°C° 0 mm 1 m/s 750 mmHg 85%
    01:00 +21°C° 0 mm 1 m/s 750 mmHg 85%
    02:00 +21°C° 0 mm 1 m/s 750 mmHg 85%
    03:00 +21°C° 0,1 mm 1 m/s 750 mmHg 85%
    04:00 +20°C° 0,1 mm 2 m/s 750 mmHg 86%
    05:00 +20°C° 0,1 mm 2 m/s 750 mmHg 86%
    06:00 +21°C° 0 mm 2 m/s 750 mmHg 81%
    07:00 +24°C° 0 mm 3 m/s 750 mmHg 76%
    08:00 +25°C° 0 mm 3 m/s 751 mmHg 70%
    09:00 +27°C° 0,4 mm 3 m/s 750 mmHg 63%
    10:00 +28°C° 0,4 mm 4 m/s 750 mmHg 56%
    11:00 +30°C° 0,4 mm 4 m/s 750 mmHg 49%
    12:00 +30°C° 0 mm 4 m/s 750 mmHg 47%
    13:00 +30°C° 0 mm 4 m/s 750 mmHg 45%
    14:00 +30°C° 0 mm 4 m/s 751 mmHg 45%
    15:00 +30°C° 0 mm 4 m/s 751 mmHg 45%
    16:00 +30°C° 0 mm 4 m/s 751 mmHg 46%
    17:00 +30°C° 0 mm 4 m/s 750 mmHg 46%
    18:00 +28°C° 0 mm 3 m/s 751 mmHg 52%
    19:00 +27°C° 0 mm 3 m/s 751 mmHg 57%
    20:00 +25°C° 0 mm 3 m/s 751 mmHg 62%
    21:00 +24°C° 0 mm 2 m/s 751 mmHg 64%
    22:00 +23°C° 0 mm 2 m/s 752 mmHg 65%
    23:00 +21°C° 0 mm 2 m/s 752 mmHg 66%

    Amanhã, 19 Junho, Terça-feira

    Tempo Temperatura Precipitação Vento Pressão Humidade
    00:00 +20°C° 0 mm 2 m/s 752 mmHg 66%
    01:00 +20°C° 0 mm 2 m/s 752 mmHg 66%
    02:00 +19°C° 0 mm 2 m/s 752 mmHg 67%
    03:00 +19°C° 0 mm 2 m/s 752 mmHg 68%
    04:00 +18°C° 0 mm 2 m/s 753 mmHg 69%
    05:00 +18°C° 0 mm 2 m/s 753 mmHg 70%
    06:00 +20°C° 0 mm 2 m/s 753 mmHg 64%
    07:00 +23°C° 0 mm 2 m/s 753 mmHg 59%
    08:00 +25°C° 0 mm 2 m/s 754 mmHg 53%
    09:00 +27°C° 0 mm 3 m/s 754 mmHg 48%
    10:00 +28°C° 0 mm 3 m/s 754 mmHg 43%
    11:00 +30°C° 0 mm 3 m/s 754 mmHg 37%
    12:00 +30°C° 0 mm 3 m/s 754 mmHg 36%
    13:00 +31°C° 0 mm 3 m/s 754 mmHg 35%
    14:00 +31°C° 0 mm 3 m/s 754 mmHg 34%
    15:00 +31°C° 0 mm 3 m/s 754 mmHg 35%
    16:00 +31°C° 0 mm 3 m/s 754 mmHg 37%
    17:00 +31°C° 0 mm 3 m/s 754 mmHg 38%
    18:00 +29°C° 0 mm 3 m/s 754 mmHg 44%
    19:00 +27°C° 0 mm 2 m/s 754 mmHg 51%
    20:00 +25°C° 0 mm 2 m/s 754 mmHg 57%
    21:00 +25°C° 0 mm 2 m/s 754 mmHg 59%
    22:00 +24°C° 0 mm 2 m/s 754 mmHg 62%
    23:00 +23°C° 0 mm 1 m/s 755 mmHg 64%

    Depois de amanhã, 20 Junho, Quarta-feira

    Tempo Temperatura Precipitação Vento Pressão Humidade
    00:00 +23°C° 0 mm 1 m/s 755 mmHg 66%
    01:00 +23°C° 0 mm 1 m/s 755 mmHg 68%
    02:00 +22°C° 0 mm 1 m/s 755 mmHg 70%
    03:00 +22°C° 0 mm 1 m/s 755 mmHg 72%
    04:00 +22°C° 0 mm 1 m/s 755 mmHg 74%
    05:00 +21°C° 0 mm 2 m/s 755 mmHg 76%
    06:00 +24°C° 0 mm 2 m/s 755 mmHg 71%
    07:00 +26°C° 0 mm 2 m/s 756 mmHg 66%
    08:00 +28°C° 0 mm 2 m/s 756 mmHg 61%
    09:00 +29°C° 0 mm 3 m/s 756 mmHg 57%
    10:00 +30°C° 0 mm 3 m/s 756 mmHg 54%
    11:00 +31°C° 0 mm 3 m/s 756 mmHg 51%
    12:00 +31°C° 0 mm 3 m/s 756 mmHg 50%
    13:00 +33°C° 0 mm 3 m/s 756 mmHg 49%
    14:00 +33°C° 0 mm 3 m/s 755 mmHg 47%
    15:00 +33°C° 0,1 mm 3 m/s 755 mmHg 49%
    16:00 +33°C° 0,1 mm 3 m/s 755 mmHg 51%
    17:00 +31°C° 0,1 mm 3 m/s 755 mmHg 52%
    18:00 +30°C° 0,2 mm 3 m/s 755 mmHg 59%
    19:00 +28°C° 0,2 mm 3 m/s 755 mmHg 65%
    20:00 +27°C° 0,2 mm 3 m/s 755 mmHg 72%
    21:00 +26°C° 0,7 mm 3 m/s 755 mmHg 76%
    22:00 +25°C° 0,7 mm 3 m/s 755 mmHg 80%
    23:00 +24°C° 0,7 mm 3 m/s 755 mmHg 84%

    21 Junho, Quinta-feira

    Tempo Temperatura Precipitação Vento Pressão Humidade
    00:00 +23°C° 0,7 mm 2 m/s 755 mmHg 86%
    01:00 +23°C° 0,7 mm 2 m/s 755 mmHg 87%
    02:00 +21°C° 0,7 mm 2 m/s 755 mmHg 89%
    03:00 +21°C° 0,1 mm 2 m/s 755 mmHg 89%
    04:00 +21°C° 0,1 mm 2 m/s 755 mmHg 88%
    05:00 +21°C° 0,1 mm 2 m/s 755 mmHg 88%
    06:00 +23°C° 0 mm 2 m/s 755 mmHg 82%
    07:00 +25°C° 0 mm 3 m/s 754 mmHg 76%
    08:00 +26°C° 0 mm 3 m/s 754 mmHg 69%
    09:00 +27°C° 0 mm 3 m/s 754 mmHg 64%
    10:00 +28°C° 0 mm 3 m/s 754 mmHg 58%
    11:00 +30°C° 0 mm 3 m/s 754 mmHg 52%
    12:00 +30°C° 0 mm 3 m/s 753 mmHg 51%
    13:00 +30°C° 0 mm 3 m/s 753 mmHg 49%
    14:00 +31°C° 0 mm 2 m/s 752 mmHg 47%
    15:00 +31°C° 0 mm 2 m/s 752 mmHg 47%
    16:00 +31°C° 0 mm 2 m/s 751 mmHg 47%
    17:00 +31°C° 0 mm 2 m/s 751 mmHg 48%
    18:00 +29°C° 0 mm 2 m/s 751 mmHg 52%
    19:00 +28°C° 0 mm 2 m/s 751 mmHg 56%
    20:00 +26°C° 0 mm 2 m/s 751 mmHg 61%
    21:00 +25°C° 0 mm 2 m/s 750 mmHg 62%
    22:00 +25°C° 0 mm 2 m/s 750 mmHg 63%
    23:00 +24°C° 0 mm 1 m/s 750 mmHg 64%

    22 Junho, Sexta-feira

    Tempo Temperatura Precipitação Vento Pressão Humidade
    00:00 +23°C° 0 mm 1 m/s 749 mmHg 65%
    01:00 +23°C° 0 mm 1 m/s 749 mmHg 66%
    02:00 +22°C° 0 mm 1 m/s 749 mmHg 67%
    03:00 +22°C° 0 mm 1 m/s 748 mmHg 69%
    04:00 +22°C° 0 mm 1 m/s 748 mmHg 71%
    05:00 +22°C° 0 mm 1 m/s 748 mmHg 73%
    06:00 +24°C° 0,2 mm 2 m/s 748 mmHg 70%
    07:00 +26°C° 0,2 mm 2 m/s 748 mmHg 66%
    08:00 +27°C° 0,2 mm 3 m/s 748 mmHg 63%
    09:00 +28°C° 0,6 mm 3 m/s 748 mmHg 60%
    10:00 +29°C° 0,6 mm 4 m/s 747 mmHg 57%
    11:00 +30°C° 0,6 mm 5 m/s 747 mmHg 55%
    12:00 +29°C° 1,1 mm 4 m/s 747 mmHg 56%
    13:00 +29°C° 1,1 mm 4 m/s 747 mmHg 57%
    14:00 +29°C° 1,1 mm 4 m/s 747 mmHg 58%
    15:00 +28°C° 1 mm 4 m/s 747 mmHg 64%
    16:00 +27°C° 1 mm 4 m/s 747 mmHg 70%
    17:00 +26°C° 1 mm 4 m/s 747 mmHg 76%
    18:00 +23°C° 1,7 mm 5 m/s 748 mmHg 79%
    19:00 +22°C° 1,7 mm 5 m/s 748 mmHg 83%
    20:00 +21°C° 1,7 mm 6 m/s 748 mmHg 87%
    21:00 +20°C° 1,7 mm 6 m/s 748 mmHg 87%
    22:00 +19°C° 1,7 mm 6 m/s 749 mmHg 88%
    23:00 +17°C° 1,7 mm 7 m/s 749 mmHg 88%

    23 Junho, Sábado

    Tempo Temperatura Precipitação Vento Pressão Humidade
    00:00 +16°C° 0,5 mm 7 m/s 749 mmHg 87%
    01:00 +15°C° 0,5 mm 7 m/s 749 mmHg 85%
    02:00 +14°C° 0,5 mm 7 m/s 749 mmHg 84%
    03:00 +14°C° 0,1 mm 7 m/s 750 mmHg 84%
    04:00 +14°C° 0,1 mm 7 m/s 750 mmHg 84%
    05:00 +14°C° 0,1 mm 7 m/s 750 mmHg 83%
    06:00 +14°C° 0,2 mm 7 m/s 751 mmHg 83%
    07:00 +14°C° 0,2 mm 7 m/s 751 mmHg 83%
    08:00 +14°C° 0,2 mm 7 m/s 751 mmHg 83%
    09:00 +14°C° 0,1 mm 7 m/s 752 mmHg 80%
    10:00 +15°C° 0,1 mm 7 m/s 752 mmHg 77%
    11:00 +15°C° 0,1 mm 7 m/s 752 mmHg 74%
    12:00 +15°C° 0,3 mm 7 m/s 752 mmHg 76%
    13:00 +14°C° 0,3 mm 6 m/s 753 mmHg 78%
    14:00 +13°C° 0,3 mm 6 m/s 753 mmHg 79%
    15:00 +14°C° 0,2 mm 5 m/s 753 mmHg 77%
    16:00 +14°C° 0,2 mm 4 m/s 753 mmHg 76%
    17:00 +16°C° 0,2 mm 3 m/s 753 mmHg 74%
    18:00 +16°C° 0 mm 2 m/s 753 mmHg 76%
    19:00 +15°C° 0 mm 1 m/s 753 mmHg 77%
    20:00 +15°C° 0 mm 1 m/s 753 mmHg 79%
    21:00 +14°C° 0 mm 1 m/s 754 mmHg 81%
    22:00 +14°C° 0 mm 1 m/s 754 mmHg 82%
    23:00 +13°C° 0 mm 1 m/s 754 mmHg 84%
    Mostrar mais